Miscellaneous Local Product
Issued by NWS Hastings, NE

Home | Current Version | Previous Version | Text Only | Print | Product List | Glossary Off
Versions: 1 2 3 4 5 6 7 8 9 10 11 12 13 14 15 16 17 18 19 20 21 22 23 24 25 26 27 28 29 30 31 32 33 34 35 36 37 38 39 40 41 42 43 44 45 46 47 48 49 50

000
AXUS43 KGID 220902
MISGRI

GID CWA HOURLY WEATHER ROUNDUP
NATIONAL WEATHER SERVICE HASTINGS NE
400 AM CDT WED OCT 22 2014

NOTE: "FAIR" INDICATES FEW OR NO CLOUDS BELOW 12,000 FEET WITH NO
SIGNIFICANT WEATHER AND/OR OBSTRUCTIONS TO VISIBILITY.

...SOUTH CENTRAL NEBRASKA...

CITY           SKY/WX    TMP DP  RH WIND       PRES   REMARKS
GRAND ISLAND   CLEAR     57  52  83 SE13      29.99S
HASTINGS       CLEAR     58  53  84 SE9       29.99S
KEARNEY        CLEAR     57  54  88 SE12G20   29.98S
ORD            CLEAR     53  50  89 SE6       29.94S
YORK           CLEAR     54  46  76 SE10      30.03S
AURORA         CLEAR     55  49  81 SE9       30.01S
LEXINGTON      CLEAR     58  53  82 S8        29.94F
HOLDREGE       CLEAR     55  52  88 CALM      29.97S
HEBRON         CLEAR     59  52  79 S9        30.03S

...NEBRASKA PANHANDLE...

CITY           SKY/WX    TMP DP  RH WIND       PRES   REMARKS
CHADRON        LGT RAIN  61  47  59 W14       29.90S
ALLIANCE       CLOUDY    55  47  74 W8        29.91S
SCOTTSBLUFF    LGT RAIN  55  50  83 NW10      29.94R
SIDNEY         MOCLDY    54  45  71 NW10      29.95R

...WESTERN AND NORTH CENTRAL NEBRASKA...

CITY           SKY/WX    TMP DP  RH WIND       PRES   REMARKS
VALENTINE      MOCLDY    61  53  75 S15       29.83F
AINSWORTH      PTCLDY    58  53  84 S14       29.87F
ONEILL         PTCLDY    57  49  74 SE13      29.93S
BROKEN BOW     PTCLDY    57  53  86 S9        29.93S
IMPERIAL       CLOUDY    60  46  59 S10       29.91R
NORTH PLATTE   MOCLDY    62  50  64 S12       29.90
MCCOOK         PTCLDY    61  50  67 S13       29.93S

...EASTERN NEBRASKA...

CITY           SKY/WX    TMP DP  RH WIND       PRES   REMARKS
NORFOLK        CLEAR     57  43  59 SE17      30.00S
SO SIOUX CITY  CLEAR     54  45  71 SE10      30.06S
TEKAMAH        PTCLDY    55  44  66 SE15      30.08R
COLUMBUS       MOCLDY    57  43  58 SE13      30.04S
ALBION         CLEAR     54  44  67 SE10      29.99S
OMAHA EPPLEY   CLEAR     55  44  66 SE13      30.10R
OFFUTT AFB     CLEAR     54  49  83 E10       30.09S
MILLARD        CLEAR     54  46  74 SE7       30.09R
LINCOLN        MOCLDY    57  43  59 SE9       30.08R
NEBRASKA CITY  CLEAR     54  41  61 SE9       30.10S
BEATRICE       CLEAR     56  45  64 SE10      30.06S
FALLS CITY     CLEAR     54  45  71 SE8       30.10S

...NORTHERN KANSAS...

CITY           SKY/WX    TMP DP  RH WIND       PRES   REMARKS
GOODLAND       MOCLDY    51  46  83 S9        29.95S
HILL CITY      CLEAR     61  51  70 S12       29.98R
NORTON         SUNNY     59  46  63 S9        29.95
PHILLIPSBURG   CLEAR     61  54  77 SE6       29.98S HAZE
SMITH CENTER   CLEAR     55  54  94 SE9       30.00S
BELOIT         CLEAR     61  57  88 SE9       30.01S
HAYS           CLEAR     54  48  82 S9        30.00S
RUSSELL        CLEAR     57  53  86 S10       30.00S
CONCORDIA      CLEAR     60  56  86 S14       30.03S
SALINA         CLEAR     60  56  86 SE8       30.04R
TOPEKA         MOCLDY    54  46  74 E5        30.11R



USA.gov is the U.S. government's official web portal to all federal, state and local government web resources and services.